Blattenbach Aussen Messungen

Zurück zum Überblick

Zeitpunkt Temperatur Temperatur Kabelsensor Luftfeuchte
18.11.2018 21:10:07 2,6 C 7,7 C 73,0%
18.11.2018 21:03:08 2,7 C 7,7 C 73,0%
18.11.2018 20:56:07 2,8 C 7,7 C 73,0%
18.11.2018 20:49:08 2,8 C 7,8 C 74,0%
18.11.2018 20:42:08 2,7 C 7,8 C 73,0%
18.11.2018 20:35:10 2,7 C 7,8 C 73,0%
18.11.2018 20:28:07 2,7 C 7,8 C 73,0%
18.11.2018 20:21:09 2,6 C 7,8 C 73,0%
18.11.2018 20:14:07 2,6 C 7,8 C 74,0%
18.11.2018 20:07:09 2,6 C 7,8 C 74,0%
18.11.2018 20:00:10 2,7 C 7,8 C 74,0%
18.11.2018 19:53:10 2,7 C 7,8 C 74,0%
18.11.2018 19:46:07 2,7 C 7,8 C 74,0%
18.11.2018 19:39:09 2,6 C 7,8 C 74,0%
18.11.2018 19:32:07 2,4 C 7,8 C 74,0%
18.11.2018 19:25:09 2,4 C 7,8 C 74,0%
18.11.2018 19:18:08 2,3 C 7,8 C 74,0%
18.11.2018 19:11:09 2,1 C 7,8 C 74,0%
18.11.2018 19:04:12 2,1 C 7,8 C 74,0%
18.11.2018 18:57:09 2,0 C 7,8 C 74,0%
18.11.2018 18:50:08 1,9 C 7,8 C 74,0%
18.11.2018 18:43:09 1,8 C 7,9 C 74,0%
18.11.2018 18:36:10 1,7 C 7,9 C 74,0%
18.11.2018 18:29:10 1,6 C 7,9 C 75,0%
18.11.2018 18:22:09 1,4 C 7,9 C 75,0%
18.11.2018 18:15:07 1,4 C 7,9 C 74,0%
18.11.2018 18:08:08 1,5 C 7,9 C 74,0%
18.11.2018 18:01:08 1,3 C 7,9 C 74,0%
18.11.2018 17:54:07 1,4 C 7,9 C 74,0%
18.11.2018 17:47:10 1,4 C 7,9 C 74,0%
18.11.2018 17:40:06 1,6 C 7,9 C 73,0%
18.11.2018 17:33:08 1,7 C 7,9 C 73,0%
18.11.2018 17:26:10 1,8 C 8,0 C 73,0%
18.11.2018 17:19:10 1,9 C 8,0 C 72,0%
18.11.2018 17:12:07 2,0 C 8,0 C 72,0%
18.11.2018 17:05:09 2,2 C 8,0 C 71,0%
18.11.2018 16:58:11 2,4 C 8,0 C 71,0%
18.11.2018 16:51:07 2,6 C 8,0 C 71,0%
18.11.2018 16:44:10 2,7 C 8,0 C 70,0%
18.11.2018 16:37:09 2,9 C 8,0 C 70,0%
18.11.2018 16:30:08 3,1 C 8,0 C 70,0%
18.11.2018 16:23:11 3,2 C 8,0 C 70,0%
18.11.2018 16:16:08 3,2 C 8,0 C 70,0%
18.11.2018 16:09:10 3,3 C 8,0 C 71,0%
18.11.2018 16:02:10 3,3 C 8,0 C 71,0%
18.11.2018 15:55:10 3,2 C 8,0 C 71,0%
18.11.2018 15:48:07 3,2 C 8,0 C 71,0%
18.11.2018 15:41:09 3,1 C 8,0 C 71,0%
18.11.2018 15:34:08 3,2 C 8,0 C 71,0%
18.11.2018 15:27:10 3,3 C 8,0 C 71,0%